Ferndale, United Kingdom
Current Conditions -  °F | °C
As of 3:50 PM on Thursday 18 Dec 2014 (Local Time) from EGDX Reporting Station
Moderate Rain Moderate Rain  
Wind Chill: 52°   Ceiling: 300
Heat Index: 52°   Visibility: 2.1mi
Dew Point: 52°   Wind: 28mph
Humidity: 100%   Direction: 250°WSW
Pressure: 29.83"   Gusts: NA
Location:  51.66°N, 3.45°W
Report Text: EGDX 181550Z 25024KT 3500 RA OVC003 11/11 Q1010 YLO2
Loading
Personal Weather Stations






























Interactive Weather Map New forecast layout! Learn more

10-Day Weather Forecast

Advertisements
Track Severe Weather on mobile